Location: Peebles
(55.6412°N, 3.1714°W)
Time: 18:30:54
(UTC+01:00)

Envisat - Pass Details

Date: 24 February 2024
Orbit: 762 x 764 km, 98.3° (Epoch: 20 April)

Event Time Altitude Azimuth Distance (km) Brightness Sun altitude
Rises 05:42:56 0° 10° (N) 3,247 6.4 -14.0°
Reaches altitude 10° 05:45:45 10° 355° (N) 2,316 5.5 -13.6°
Maximum altitude 05:49:26 21° 308° (NW) 1,695 4.4 -13.1°
Enters shadow 05:51:08 18° 282° (WNW) 1,843 4.4 -12.9°
